This demonstration page uses our WeatherBlox Daily Observations layout. Learn more.

Left ArrowRight Arrow

Hourly Observations for June 8, 2020

Temp ( °F °C ) Dew Point ( °F °C ) Humidity (%) Winds ( mph kmh ) Pressure ( in mb ) Visibility ( mi km ) Precip ( " mm )
12:53 am 00:53 Cloudy 50 10 45 7.2 83 83 W 5 7 29.71 1006 10 16 N/A
1:53 am 01:53 Cloudy 51 10.6 44 6.7 77 77 WNW 10 17 29.71 1006 10 16 N/A
2:53 am 02:53 Cloudy 50 10 44 6.7 80 80 WNW 8 13 29.74 1007 10 16 N/A
3:53 am 03:53 Cloudy 49 9.4 44 6.7 83 83 NW 7 11 29.74 1007 10 16 N/A
4:53 am 04:53 Cloudy 49 9.4 44 6.7 83 83 W 5 7 29.74 1007 10 16 N/A
5:53 am 05:53 Cloudy 49 9.4 44 6.7 83 83 N N/A 29.75 1008 10 16 N/A
6:53 am 06:53 Cloudy 50 10 44 6.7 80 80 N N/A 29.76 1008 10 16 N/A
7:53 am 07:53 Cloudy 50 10 44 6.7 80 80 W 5 7 29.79 1009 10 16 N/A
8:53 am 08:53 Cloudy 50 10 46 7.8 86 86 WNW 5 7 29.81 1009 10 16 N/A
9:50 am 09:50 Cloudy with Light Rain 50 10 46 8 88 88 N N/A 29.81 1009 8 13 0.01 0.25
9:53 am 09:53 Cloudy with Light Rain 50 10 47 8.3 89 89 NNW 3 6 29.83 1010 8 13 0.01 0.25
10:08 am 10:08 Cloudy with Light Rain 50 10 46 7.8 86 86 N N/A 29.82 1010 9 14 0.01 0.25
10:53 am 10:53 Cloudy 51 10.6 45 7.2 80 80 NW 6 9 29.83 1010 10 16 0.02 0.51
11:53 am 11:53 Cloudy 52 11.1 44 6.7 75 75 SW 3 6 29.84 1011 10 16 0.00 0.00
12:27 pm 12:27 Cloudy 52 11.1 45 7.2 77 77 N N/A 29.83 1010 10 16 N/A
12:53 pm 12:53 Cloudy 53 11.7 45 7.2 74 74 S 3 6 29.85 1011 10 16 N/A
1:53 pm 13:53 Cloudy with Rain 50 10 45 7.2 83 83 NNW 9 15 29.87 1012 5 8 0.01 0.25
2:42 pm 14:42 Cloudy with Heavy Rain 50 10 46 7.8 86 86 NE 6 9 29.88 1012 3 4 0.04 1.02
2:53 pm 14:53 Cloudy with Light Rain 50 10 46 7.8 86 86 E 5 7 29.89 1012 5 8 0.10 2.54
3:53 pm 15:53 Cloudy with Light Rain 52 11.1 45 7.2 77 77 NNW 12 19 29.90 1013 10 16 0.02 0.51
4:53 pm 16:53 Cloudy with Light Rain 51 10.6 44 6.7 77 77 N N/A 29.92 1013 10 16 0.04 1.02
5:53 pm 17:53 Cloudy 53 11.7 43 6.1 69 69 VRB 3 6 29.93 1014 10 16 0.01 0.25
6:53 pm 18:53 Cloudy 53 11.7 42 5.6 66 66 N N/A 29.95 1014 10 16 0.00 0.00
7:53 pm 19:53 Cloudy 53 11.7 44 6.7 72 72 N N/A 29.96 1015 10 16 N/A
8:53 pm 20:53 Cloudy 51 10.6 46 7.8 83 83 SW 6 9 29.99 1016 10 16 N/A
9:53 pm 21:53 Cloudy 50 10 46 7.8 86 86 WSW 6 9 30.00 1016 10 16 N/A
10:53 pm 22:53 Cloudy 50 10 46 7.8 86 86 SW 8 13 30.01 1016 10 16 N/A
11:53 pm 23:53 Partly Cloudy 48 8.9 45 7.2 89 89 WSW 8 13 29.99 1016 10 16 N/A

Powered by AerisWeather